This is the latest recevied weather packets stored in our database for station/object WA4TPR. If no packets are shown the sender has not sent any weather packets the latest 10 day(s).
| Time | Temp. | Humidity | Pressure | Rain* | Wind** | Luminosity | Snow |
|---|---|---|---|---|---|---|---|
| 1777726677 | 25.56° C | 89% | 1014.7 hPa | 0 mm | - | 234 W/m² | - |
| 1777726374 | 25.56° C | 89% | 1014.9 hPa | 0 mm | - | 205 W/m² | - |
| 1777726071 | 25° C | 90% | 1014.7 hPa | 0 mm | - | 164 W/m² | - |
| 1777725768 | 24.44° C | 90% | 1014.6 hPa | 0 mm | - | 87 W/m² | - |
| 1777725466 | 24.44° C | 90% | 1014.7 hPa | 0 mm | - | 111 W/m² | - |
| 1777725163 | 23.89° C | 91% | 1014.8 hPa | 0 mm | - | 102 W/m² | - |
| 1777724860 | 23.89° C | 92% | 1014.6 hPa | 0 mm | - | 98 W/m² | - |
| 1777724556 | 23.33° C | 93% | 1014.8 hPa | 0 mm | - | 133 W/m² | - |
| 1777724254 | 22.78° C | 95% | 1014.9 hPa | 0 mm | - | 113 W/m² | - |
| 1777723952 | 22.22° C | 96% | 1014.9 hPa | 0 mm | - | 91 W/m² | - |
| 1777723648 | 21.67° C | 98% | 1014.6 hPa | 0 mm | - | 92 W/m² | - |
| 1777723345 | 21.67° C | 99% | 1014.5 hPa | 0 mm | - | 83 W/m² | - |
| 1777723043 | 21.11° C | 99% | 1014.7 hPa | 0 mm | - | 73 W/m² | - |
| 1777722739 | 21.11° C | 99% | 1014.8 hPa | 0 mm | - | 57 W/m² | - |
| 1777722435 | 20.56° C | 99% | 1014.7 hPa | 0 mm | - | 60 W/m² | - |
| 1777722133 | 20° C | 99% | 1014.8 hPa | 0 mm | - | 52 W/m² | - |
| 1777721830 | 20° C | 99% | 1014.7 hPa | 0 mm | - | 45 W/m² | - |
| 1777721528 | 20° C | 99% | 1014.8 hPa | 0 mm | - | 35 W/m² | - |
| 1777721225 | 19.44° C | 99% | 1014.6 hPa | 0 mm | - | 33 W/m² | - |
| 1777720923 | 19.44° C | 99% | 1014.9 hPa | 0 mm | - | 28 W/m² | - |
| 1777720620 | 18.89° C | 99% | 1014.9 hPa | 0 mm | - | 22 W/m² | - |
| 1777720317 | 18.89° C | 99% | 1014.9 hPa | 0 mm | - | 19 W/m² | - |
| 1777720015 | 18.89° C | 99% | 1014.9 hPa | 0 mm | - | 15 W/m² | - |
| 1777719712 | 18.89° C | 99% | 1014.6 hPa | 0 mm | - | 11 W/m² | - |
| 1777719409 | 18.89° C | 99% | 1014.7 hPa | 0 mm | - | 7 W/m² | - |
* Rain latest hour (hover to see other rain measurements)
** Current wind speed in m/s (hover to see current wind gust speed)